Time,TemperatureF,DewpointF,PressureIn,WindDirection,WindDirectionDegrees,WindSpeedMPH,WindSpeedGustMPH,Humidity,HourlyPrecipIn,Conditions,Clouds,dailyrainin,SoftwareType,DateUTC
2013-01-01 00:01:00,10.0,4.5,30.17,West,263,2.0,3.0,78,0.00,,,0.00,Wunderground v.1.15,2013-01-01 06:01:00,
2013-01-01 00:07:00,9.9,4.4,30.17,West,278,3.0,3.0,78,0.00,,,0.00,Wunderground v.1.15,2013-01-01 06:07:00,
2013-01-01 00:12:00,9.7,4.2,30.17,West,273,3.0,3.0,78,0.00,,,0.00,Wunderground v.1.15,2013-01-01 06:12:00,
2013-01-01 00:18:00,9.5,4.0,30.17,West,269,2.0,3.0,78,0.00,,,0.00,Wunderground v.1.15,2013-01-01 06:18:00,
2013-01-01 00:24:00,9.3,4.1,30.17,West,277,2.0,2.0,79,0.00,,,0.00,Wunderground v.1.15,2013-01-01 06:24:00,
2013-01-01 00:29:00,9.1,3.6,30.18,West,259,1.0,2.0,78,0.00,,,0.00,Wunderground v.1.15,2013-01-01 06:29:00,
2013-01-01 00:35:00,9.0,3.8,30.18,West,273,0.0,1.0,79,0.00,,,0.00,Wunderground v.1.15,2013-01-01 06:35:00,
2013-01-01 00:40:00,8.9,3.7,30.18,West,276,1.0,1.0,79,0.00,,,0.00,Wunderground v.1.15,2013-01-01 06:40:00,
2013-01-01 00:46:00,8.7,3.5,30.18,WNW,300,2.0,3.0,79,0.00,,,0.00,Wunderground v.1.15,2013-01-01 06:46:00,
2013-01-01 00:52:00,8.6,3.4,30.18,West,274,2.0,2.0,79,0.00,,,0.00,Wunderground v.1.15,2013-01-01 06:52:00,
2013-01-01 00:57:00,8.3,3.1,30.18,West,266,2.0,2.0,79,0.00,,,0.00,Wunderground v.1.15,2013-01-01 06:57:00,
2013-01-01 01:03:00,8.2,3.0,30.18,West,279,3.0,3.0,79,0.00,,,0.00,Wunderground v.1.15,2013-01-01 07:03:00,
2013-01-01 01:08:00,7.9,2.7,30.18,West,263,1.0,3.0,79,0.00,,,0.00,Wunderground v.1.15,2013-01-01 07:08:00,
2013-01-01 01:14:00,7.5,2.6,30.17,West,271,3.0,3.0,80,0.00,,,0.00,Wunderground v.1.15,2013-01-01 07:14:00,
2013-01-01 01:20:00,7.1,2.2,30.18,West,269,1.0,2.0,80,0.00,,,0.00,Wunderground v.1.15,2013-01-01 07:20:00,
2013-01-01 01:25:00,6.7,1.8,30.18,West,266,2.0,2.0,80,0.00,,,0.00,Wunderground v.1.15,2013-01-01 07:25:00,
2013-01-01 01:31:00,6.6,2.0,30.18,West,266,1.0,3.0,82,0.00,,,0.00,weatherlink.com 1.10,2013-01-01 07:31:00,
2013-01-01 01:36:00,6.6,2.3,30.18,West,280,2.0,3.0,82,0.00,,,0.00,Wunderground v.1.15,2013-01-01 07:36:00,
2013-01-01 01:42:00,6.4,2.1,30.18,West,271,3.0,3.0,82,0.00,,,0.00,Wunderground v.1.15,2013-01-01 07:42:00,
2013-01-01 01:48:00,6.5,2.2,30.18,West,264,2.0,3.0,82,0.00,,,0.00,Wunderground v.1.15,2013-01-01 07:48:00,
2013-01-01 01:53:00,6.4,2.1,30.19,West,259,2.0,2.0,82,0.00,,,0.00,Wunderground v.1.15,2013-01-01 07:53:00,
2013-01-01 01:59:00,6.5,2.2,30.18,West,267,1.0,3.0,82,0.00,,,0.00,Wunderground v.1.15,2013-01-01 07:59:00,
2013-01-01 02:04:00,6.4,1.8,30.18,West,259,1.0,2.0,81,0.00,,,0.00,Wunderground v.1.15,2013-01-01 08:04:00,
2013-01-01 02:09:00,6.2,1.6,30.19,West,266,1.0,3.0,81,0.00,,,0.00,Wunderground v.1.15,2013-01-01 08:09:00,
2013-01-01 02:14:00,5.7,1.1,30.19,WSW,248,2.0,2.0,81,0.00,,,0.00,Wunderground v.1.15,2013-01-01 08:14:00,
2013-01-01 02:19:00,5.6,1.3,30.19,West,265,1.0,3.0,82,0.00,,,0.00,Wunderground v.1.15,2013-01-01 08:19:00,
2013-01-01 02:24:00,5.5,1.2,30.19,West,264,1.0,2.0,82,0.00,,,0.00,Wunderground v.1.15,2013-01-01 08:24:00,
2013-01-01 02:29:00,5.4,1.4,30.19,West,266,2.0,3.0,83,0.00,,,0.00,Wunderground v.1.15,2013-01-01 08:29:00,
2013-01-01 02:34:00,5.5,1.5,30.20,West,271,3.0,3.0,83,0.00,,,0.00,Wunderground v.1.15,2013-01-01 08:34:00,
2013-01-01 02:39:00,5.6,1.6,30.19,WNW,290,1.0,3.0,83,0.00,,,0.00,Wunderground v.1.15,2013-01-01 08:39:00,
2013-01-01 02:44:00,5.7,1.7,30.19,West,267,2.0,3.0,83,0.00,,,0.00,Wunderground v.1.15,2013-01-01 08:44:00,
2013-01-01 02:49:00,5.7,1.7,30.19,West,277,4.0,4.0,83,0.00,,,0.00,Wunderground v.1.15,2013-01-01 08:49:00,
2013-01-01 02:54:00,5.5,1.2,30.20,West,263,2.0,3.0,82,0.00,,,0.00,Wunderground v.1.15,2013-01-01 08:54:00,
2013-01-01 02:59:00,5.2,1.2,30.20,West,267,2.0,4.0,83,0.00,,,0.00,Wunderground v.1.15,2013-01-01 08:59:00,
2013-01-01 03:04:00,4.6,0.3,30.20,West,265,2.0,3.0,82,0.00,,,0.00,Wunderground v.1.15,2013-01-01 09:04:00,
2013-01-01 03:09:00,4.1,0.1,30.20,WSW,257,1.0,3.0,83,0.00,,,0.00,Wunderground v.1.15,2013-01-01 09:09:00,
2013-01-01 03:14:00,4.1,0.3,30.20,WSW,257,2.0,3.0,84,0.00,,,0.00,Wunderground v.1.15,2013-01-01 09:14:00,
2013-01-01 03:19:00,4.3,0.5,30.20,West,264,2.0,4.0,84,0.00,,,0.00,Wunderground v.1.15,2013-01-01 09:19:00,
2013-01-01 03:24:00,4.3,0.5,30.20,West,270,2.0,3.0,84,0.00,,,0.00,Wunderground v.1.15,2013-01-01 09:24:00,
2013-01-01 03:29:00,4.1,0.3,30.20,West,260,1.0,3.0,84,0.00,,,0.00,Wunderground v.1.15,2013-01-01 09:29:00,
2013-01-01 03:34:00,3.7,-0.1,30.20,West,271,2.0,2.0,84,0.00,,,0.00,Wunderground v.1.15,2013-01-01 09:34:00,
2013-01-01 03:39:00,3.1,-0.6,30.20,WSW,257,1.0,3.0,84,0.00,,,0.00,Wunderground v.1.15,2013-01-01 09:39:00,
2013-01-01 03:44:00,2.8,-0.9,30.20,West,264,1.0,2.0,84,0.00,,,0.00,Wunderground v.1.15,2013-01-01 09:44:00,
2013-01-01 03:49:00,2.5,-1.0,30.20,West,276,1.0,2.0,85,0.00,,,0.00,Wunderground v.1.15,2013-01-01 09:49:00,
2013-01-01 03:54:00,2.5,-1.0,30.20,West,270,1.0,2.0,85,0.00,,,0.00,Wunderground v.1.15,2013-01-01 09:54:00,
2013-01-01 03:59:00,2.7,-0.5,30.20,West,266,2.0,2.0,86,0.00,,,0.00,Wunderground v.1.15,2013-01-01 09:59:00,
2013-01-01 04:04:00,2.9,-0.3,30.20,West,263,1.0,2.0,86,0.00,,,0.00,Wunderground v.1.15,2013-01-01 10:04:00,
2013-01-01 04:09:00,2.9,-0.3,30.21,West,266,2.0,2.0,86,0.00,,,0.00,Wunderground v.1.15,2013-01-01 10:09:00,
2013-01-01 04:14:00,3.4,-0.1,30.21,West,270,1.0,2.0,85,0.00,,,0.00,Wunderground v.1.15,2013-01-01 10:14:00,
2013-01-01 04:19:00,3.4,-0.1,30.20,West,270,1.0,2.0,85,0.00,,,0.00,Wunderground v.1.15,2013-01-01 10:19:00,
2013-01-01 04:24:00,-999.9,-99.9,30.20,North,32767,-999.0,1.0,255,-99.99,,,0.00,Wunderground v.1.15,2013-01-01 10:24:00,
2013-01-01 04:29:00,-999.9,-99.9,30.20,North,32767,-999.0,1.0,255,-99.99,,,0.00,Wunderground v.1.15,2013-01-01 10:29:00,
2013-01-01 04:34:00,-999.9,-99.9,30.20,North,32767,-999.0,-999.0,255,-99.99,,,0.00,Wunderground v.1.15,2013-01-01 10:34:00,
2013-01-01 04:39:00,-999.9,-99.9,30.20,North,32767,-999.0,-999.0,255,-99.99,,,0.00,Wunderground v.1.15,2013-01-01 10:39:00,
2013-01-01 04:44:00,-999.9,-99.9,30.20,North,32767,-999.0,-999.0,255,-99.99,,,0.00,Wunderground v.1.15,2013-01-01 10:44:00,
2013-01-01 04:49:00,-999.9,-99.9,30.20,North,32767,-999.0,-999.0,255,-99.99,,,0.00,Wunderground v.1.15,2013-01-01 10:49:00,
2013-01-01 04:54:00,-999.9,-99.9,30.20,North,32767,-999.0,-999.0,255,-99.99,,,0.00,Wunderground v.1.15,2013-01-01 10:54:00,
2013-01-01 04:59:00,-999.9,-99.9,30.20,North,32767,-999.0,-999.0,255,-99.99,,,0.00,Wunderground v.1.15,2013-01-01 10:59:00,
2013-01-01 05:04:00,-999.9,-99.9,30.21,North,32767,-999.0,-999.0,255,-99.99,,,0.00,Wunderground v.1.15,2013-01-01 11:04:00,
2013-01-01 05:09:00,-999.9,-99.9,30.21,North,32767,-999.0,-999.0,255,-99.99,,,0.00,Wunderground v.1.15,2013-01-01 11:09:00,
2013-01-01 05:14:00,-999.9,-99.9,30.21,North,32767,-999.0,-999.0,255,-99.99,,,0.00,Wunderground v.1.15,2013-01-01 11:14:00,
2013-01-01 05:19:00,-999.9,-99.9,30.22,North,32767,-999.0,-999.0,255,-99.99,,,0.00,Wunderground v.1.15,2013-01-01 11:19:00,
2013-01-01 05:24:00,-999.9,-99.9,30.22,North,32767,-999.0,-999.0,255,-99.99,,,0.00,Wunderground v.1.15,2013-01-01 11:24:00,
2013-01-01 05:30:00,-999.9,-99.9,30.22,North,32767,-999.0,-999.0,255,-99.99,,,0.00,Wunderground v.1.15,2013-01-01 11:30:00,
2013-01-01 05:35:00,-999.9,-99.9,30.22,North,32767,-999.0,-999.0,255,-99.99,,,0.00,Wunderground v.1.15,2013-01-01 11:35:00,
2013-01-01 05:40:00,-999.9,-99.9,30.22,North,32767,-999.0,-999.0,255,-99.99,,,0.00,Wunderground v.1.15,2013-01-01 11:40:00,
2013-01-01 05:45:00,-999.9,-99.9,30.23,North,32767,-999.0,-999.0,255,-99.99,,,0.00,Wunderground v.1.15,2013-01-01 11:45:00,
2013-01-01 05:50:00,-999.9,-99.9,30.23,North,32767,-999.0,-999.0,255,-99.99,,,0.00,Wunderground v.1.15,2013-01-01 11:50:00,
2013-01-01 05:55:00,-999.9,-99.9,30.23,North,32767,-999.0,-999.0,255,-99.99,,,0.00,Wunderground v.1.15,2013-01-01 11:55:00,
2013-01-01 06:00:00,-999.9,-99.9,30.23,North,32767,-999.0,-999.0,255,-99.99,,,0.00,Wunderground v.1.15,2013-01-01 12:00:00,
2013-01-01 06:05:00,-999.9,-99.9,30.23,North,32767,-999.0,-999.0,255,-99.99,,,0.00,Wunderground v.1.15,2013-01-01 12:05:00,
2013-01-01 06:10:00,-999.9,-99.9,30.23,North,32767,-999.0,-999.0,255,-99.99,,,0.00,Wunderground v.1.15,2013-01-01 12:10:00,
2013-01-01 06:15:00,-999.9,-99.9,30.23,North,32767,-999.0,-999.0,255,-99.99,,,0.00,Wunderground v.1.15,2013-01-01 12:15:00,
2013-01-01 06:20:00,-999.9,-99.9,30.23,North,32767,-999.0,-999.0,255,-99.99,,,0.00,Wunderground v.1.15,2013-01-01 12:20:00,
2013-01-01 06:25:00,-999.9,-99.9,30.23,North,32767,-999.0,-999.0,255,-99.99,,,0.00,Wunderground v.1.15,2013-01-01 12:25:00,
2013-01-01 06:30:00,-999.9,-99.9,30.23,North,32767,-999.0,-999.0,255,-99.99,,,0.00,Wunderground v.1.15,2013-01-01 12:30:00,
2013-01-01 06:35:00,-999.9,-99.9,30.23,North,32767,-999.0,-999.0,255,-99.99,,,0.00,Wunderground v.1.15,2013-01-01 12:35:00,
2013-01-01 06:40:00,-999.9,-99.9,30.23,North,32767,-999.0,-999.0,255,-99.99,,,0.00,Wunderground v.1.15,2013-01-01 12:40:00,
2013-01-01 06:45:00,-999.9,-99.9,30.24,North,32767,-999.0,-999.0,255,-99.99,,,0.00,Wunderground v.1.15,2013-01-01 12:45:00,
2013-01-01 06:50:00,-999.9,-99.9,30.24,North,32767,-999.0,-999.0,255,-99.99,,,0.00,Wunderground v.1.15,2013-01-01 12:50:00,
2013-01-01 06:55:00,-999.9,-99.9,30.24,North,32767,-999.0,-999.0,255,-99.99,,,0.00,Wunderground v.1.15,2013-01-01 12:55:00,
2013-01-01 07:00:00,-999.9,-99.9,30.24,North,32767,-999.0,-999.0,255,-99.99,,,0.00,Wunderground v.1.15,2013-01-01 13:00:00,
2013-01-01 07:05:00,-999.9,-99.9,30.24,North,32767,-999.0,-999.0,255,-99.99,,,0.00,Wunderground v.1.15,2013-01-01 13:05:00,
2013-01-01 07:10:00,-999.9,-99.9,30.24,North,32767,-999.0,-999.0,255,-99.99,,,0.00,Wunderground v.1.15,2013-01-01 13:10:00,
2013-01-01 07:15:00,-999.9,-99.9,30.24,North,32767,-999.0,-999.0,255,-99.99,,,0.00,Wunderground v.1.15,2013-01-01 13:15:00,
2013-01-01 07:20:00,-999.9,-99.9,30.25,North,32767,-999.0,-999.0,255,-99.99,,,0.00,Wunderground v.1.15,2013-01-01 13:20:00,
2013-01-01 07:25:00,-999.9,-99.9,30.25,North,32767,-999.0,-999.0,255,-99.99,,,0.00,Wunderground v.1.15,2013-01-01 13:25:00,
2013-01-01 07:30:00,-999.9,-99.9,30.25,North,32767,-999.0,-999.0,255,-99.99,,,0.00,Wunderground v.1.15,2013-01-01 13:30:00,
2013-01-01 07:35:00,-999.9,-99.9,30.25,North,32767,-999.0,-999.0,255,-99.99,,,0.00,Wunderground v.1.15,2013-01-01 13:35:00,
2013-01-01 07:40:00,-999.9,-99.9,30.26,North,32767,-999.0,-999.0,255,-99.99,,,0.00,Wunderground v.1.15,2013-01-01 13:40:00,
2013-01-01 07:45:00,-999.9,-99.9,30.25,North,32767,-999.0,-999.0,255,-99.99,,,0.00,Wunderground v.1.15,2013-01-01 13:45:00,
2013-01-01 07:50:00,-999.9,-99.9,30.25,North,32767,-999.0,-999.0,255,-99.99,,,0.00,Wunderground v.1.15,2013-01-01 13:50:00,
2013-01-01 07:55:00,-999.9,-99.9,30.26,North,32767,-999.0,-999.0,255,-99.99,,,0.00,Wunderground v.1.15,2013-01-01 13:55:00,
2013-01-01 08:00:00,-999.9,-99.9,30.26,North,32767,-999.0,-999.0,255,-99.99,,,0.00,Wunderground v.1.15,2013-01-01 14:00:00,
2013-01-01 08:05:00,-999.9,-99.9,30.26,North,32767,-999.0,-999.0,255,-99.99,,,0.00,Wunderground v.1.15,2013-01-01 14:05:00,
2013-01-01 08:10:00,-999.9,-99.9,30.26,North,32767,-999.0,-999.0,255,-99.99,,,0.00,Wunderground v.1.15,2013-01-01 14:10:00,
2013-01-01 08:15:00,-999.9,-99.9,30.25,North,32767,-999.0,-999.0,255,-99.99,,,0.00,Wunderground v.1.15,2013-01-01 14:15:00,
2013-01-01 08:20:00,-999.9,-99.9,30.25,North,32767,-999.0,-999.0,255,-99.99,,,0.00,Wunderground v.1.15,2013-01-01 14:20:00,
2013-01-01 08:25:00,-999.9,-99.9,30.26,North,32767,-999.0,-999.0,255,-99.99,,,0.00,Wunderground v.1.15,2013-01-01 14:25:00,
2013-01-01 08:30:00,-999.9,-99.9,30.26,North,32767,-999.0,-999.0,255,-99.99,,,0.00,Wunderground v.1.15,2013-01-01 14:30:00,
2013-01-01 08:35:00,-999.9,-99.9,30.26,North,32767,-999.0,-999.0,255,-99.99,,,0.00,Wunderground v.1.15,2013-01-01 14:35:00,
2013-01-01 08:40:00,-999.9,-99.9,30.26,North,32767,-999.0,-999.0,255,-99.99,,,0.00,Wunderground v.1.15,2013-01-01 14:40:00,
2013-01-01 08:45:00,-999.9,-99.9,30.26,North,32767,-999.0,-999.0,255,-99.99,,,0.00,Wunderground v.1.15,2013-01-01 14:45:00,
2013-01-01 08:50:00,4.3,-0.2,30.27,West,266,3.0,3.0,81,0.00,,,0.00,Wunderground v.1.15,2013-01-01 14:50:00,
2013-01-01 08:55:00,4.8,0.2,30.26,WNW,287,1.0,5.0,81,0.00,,,0.00,Wunderground v.1.15,2013-01-01 14:55:00,
2013-01-01 09:00:00,5.2,0.4,30.26,West,279,1.0,2.0,80,0.00,,,0.00,Wunderground v.1.15,2013-01-01 15:00:00,
2013-01-01 09:06:00,5.7,0.9,30.26,WNW,291,2.0,4.0,80,0.00,,,0.00,Wunderground v.1.15,2013-01-01 15:06:00,
2013-01-01 09:11:00,6.1,1.0,30.26,WNW,285,3.0,3.0,79,0.00,,,0.00,Wunderground v.1.15,2013-01-01 15:11:00,
2013-01-01 09:16:00,6.4,1.0,30.26,WNW,285,2.0,4.0,78,0.00,,,0.00,Wunderground v.1.15,2013-01-01 15:16:00,
2013-01-01 09:21:00,6.7,1.3,30.26,West,264,2.0,2.0,78,0.00,,,0.00,Wunderground v.1.15,2013-01-01 15:21:00,
2013-01-01 09:26:00,7.2,1.8,30.26,WNW,286,3.0,5.0,78,0.00,,,0.00,Wunderground v.1.15,2013-01-01 15:26:00,
2013-01-01 09:31:00,7.4,1.7,30.26,WNW,290,2.0,4.0,77,0.00,,,0.00,Wunderground v.1.15,2013-01-01 15:31:00,
2013-01-01 09:36:00,7.6,1.9,30.26,WNW,302,2.0,5.0,77,0.00,,,0.00,Wunderground v.1.15,2013-01-01 15:36:00,
2013-01-01 09:41:00,7.9,2.2,30.26,NNW,332,1.0,5.0,77,0.00,,,0.00,Wunderground v.1.15,2013-01-01 15:41:00,
2013-01-01 09:46:00,8.2,2.2,30.25,West,266,1.0,5.0,76,0.00,,,0.00,Wunderground v.1.15,2013-01-01 15:46:00,
2013-01-01 09:51:00,8.6,2.6,30.25,WSW,246,2.0,4.0,76,0.00,,,0.00,Wunderground v.1.15,2013-01-01 15:51:00,
2013-01-01 09:56:00,8.9,2.9,30.25,WSW,252,3.0,4.0,76,0.00,,,0.00,Wunderground v.1.15,2013-01-01 15:56:00,
2013-01-01 10:01:00,9.1,2.8,30.25,WSW,256,3.0,4.0,75,0.00,,,0.00,Wunderground v.1.15,2013-01-01 16:01:00,
2013-01-01 10:06:00,9.3,3.0,30.25,West,266,3.0,5.0,75,0.00,,,0.00,Wunderground v.1.15,2013-01-01 16:06:00,
2013-01-01 10:11:00,9.7,3.4,30.26,WSW,252,3.0,4.0,75,0.00,,,0.00,Wunderground v.1.15,2013-01-01 16:11:00,
2013-01-01 10:16:00,10.0,3.4,30.25,West,266,3.0,5.0,74,0.00,,,0.00,Wunderground v.1.15,2013-01-01 16:16:00,
2013-01-01 10:21:00,10.3,3.7,30.25,WSW,255,3.0,4.0,74,0.00,,,0.00,Wunderground v.1.15,2013-01-01 16:21:00,
2013-01-01 10:26:00,10.8,4.1,30.25,West,267,3.0,4.0,74,0.00,,,0.00,Wunderground v.1.15,2013-01-01 16:26:00,
2013-01-01 10:31:00,11.0,4.0,30.25,West,267,5.0,5.0,73,0.00,,,0.00,Wunderground v.1.15,2013-01-01 16:31:00,
2013-01-01 10:36:00,11.3,4.6,30.24,NW,308,0.0,6.0,74,0.00,,,0.00,Wunderground v.1.15,2013-01-01 16:36:00,
2013-01-01 10:41:00,11.9,4.9,30.24,West,264,4.0,5.0,73,0.00,,,0.00,Wunderground v.1.15,2013-01-01 16:41:00,
2013-01-01 10:46:00,12.2,5.2,30.24,WNW,293,1.0,6.0,73,0.00,,,0.00,Wunderground v.1.15,2013-01-01 16:46:00,
2013-01-01 10:51:00,12.5,5.2,30.24,West,279,2.0,4.0,72,0.00,,,0.00,Wunderground v.1.15,2013-01-01 16:51:00,
2013-01-01 10:56:00,12.9,5.3,30.23,West,281,6.0,7.0,71,0.00,,,0.00,Wunderground v.1.15,2013-01-01 16:56:00,
2013-01-01 11:01:00,13.0,5.4,30.23,WNW,297,6.0,7.0,71,0.00,,,0.00,Wunderground v.1.15,2013-01-01 17:01:00,
2013-01-01 11:06:00,12.9,5.3,30.23,WNW,288,3.0,7.0,71,0.00,,,0.00,Wunderground v.1.15,2013-01-01 17:06:00,
2013-01-01 11:11:00,12.8,4.9,30.23,WSW,256,4.0,6.0,70,0.00,,,0.00,Wunderground v.1.15,2013-01-01 17:11:00,
2013-01-01 11:16:00,12.8,4.9,30.23,SW,233,7.0,8.0,70,0.00,,,0.00,Wunderground v.1.15,2013-01-01 17:16:00,
2013-01-01 11:21:00,12.8,4.9,30.23,WSW,256,6.0,8.0,70,0.00,,,0.00,Wunderground v.1.15,2013-01-01 17:21:00,
2013-01-01 11:26:00,12.9,5.0,30.23,West,259,2.0,9.0,70,0.00,,,0.00,Wunderground v.1.15,2013-01-01 17:26:00,
2013-01-01 11:31:00,13.1,5.1,30.23,West,267,4.0,4.0,70,0.00,,,0.00,Wunderground v.1.15,2013-01-01 17:31:00,
2013-01-01 11:36:00,13.5,5.2,30.23,West,279,4.0,7.0,69,0.00,,,0.00,Wunderground v.1.15,2013-01-01 17:36:00,
2013-01-01 11:41:00,13.6,5.3,30.23,WNW,293,3.0,5.0,69,0.00,,,0.00,Wunderground v.1.15,2013-01-01 17:41:00,
2013-01-01 11:46:00,13.4,5.1,30.23,WSW,257,5.0,6.0,69,0.00,,,0.00,Wunderground v.1.15,2013-01-01 17:46:00,
2013-01-01 11:51:00,13.2,5.2,30.23,West,274,3.0,5.0,70,0.00,,,0.00,Wunderground v.1.15,2013-01-01 17:51:00,
2013-01-01 11:56:00,13.2,5.2,30.22,West,264,4.0,7.0,70,0.00,,,0.00,Wunderground v.1.15,2013-01-01 17:56:00,
2013-01-01 12:01:00,12.7,4.8,30.22,West,260,5.0,5.0,70,0.00,,,0.00,Wunderground v.1.15,2013-01-01 18:01:00,
2013-01-01 12:06:00,12.7,5.1,30.22,West,267,5.0,7.0,71,0.00,,,0.00,Wunderground v.1.15,2013-01-01 18:06:00,
2013-01-01 12:11:00,12.5,4.6,30.22,WSW,243,5.0,7.0,70,0.00,,,0.00,Wunderground v.1.15,2013-01-01 18:11:00,
2013-01-01 12:16:00,12.3,4.7,30.22,WSW,256,7.0,7.0,71,0.00,,,0.00,Wunderground v.1.15,2013-01-01 18:16:00,
2013-01-01 12:21:00,12.3,4.7,30.22,West,259,4.0,7.0,71,0.00,,,0.00,Wunderground v.1.15,2013-01-01 18:21:00,
2013-01-01 12:26:00,12.5,4.9,30.22,WSW,257,4.0,8.0,71,0.00,,,0.00,Wunderground v.1.15,2013-01-01 18:26:00,
2013-01-01 12:31:00,12.6,5.0,30.22,West,269,4.0,5.0,71,0.00,,,0.00,Wunderground v.1.15,2013-01-01 18:31:00,
2013-01-01 12:36:00,12.7,4.8,30.22,West,264,5.0,9.0,70,0.00,,,0.00,Wunderground v.1.15,2013-01-01 18:36:00,
2013-01-01 12:41:00,12.5,4.6,30.22,West,266,6.0,8.0,70,0.00,,,0.00,Wunderground v.1.15,2013-01-01 18:41:00,
2013-01-01 12:46:00,12.4,4.5,30.22,West,269,5.0,10.0,70,0.00,,,0.00,Wunderground v.1.15,2013-01-01 18:46:00,
2013-01-01 12:51:00,12.3,4.7,30.22,West,263,6.0,7.0,71,0.00,,,0.00,Wunderground v.1.15,2013-01-01 18:51:00,
2013-01-01 12:56:00,12.4,4.8,30.22,West,269,5.0,7.0,71,0.00,,,0.00,Wunderground v.1.15,2013-01-01 18:56:00,
2013-01-01 13:01:00,12.6,5.0,30.22,WSW,245,6.0,7.0,71,0.00,,,0.00,Wunderground v.1.15,2013-01-01 19:01:00,
2013-01-01 13:06:00,12.3,4.7,30.22,WSW,242,4.0,7.0,71,0.00,,,0.00,Wunderground v.1.15,2013-01-01 19:06:00,
2013-01-01 13:11:00,12.4,4.8,30.22,WSW,241,6.0,7.0,71,0.00,,,0.00,Wunderground v.1.15,2013-01-01 19:11:00,
2013-01-01 13:16:00,12.5,4.6,30.22,WSW,239,5.0,7.0,70,0.00,,,0.00,Wunderground v.1.15,2013-01-01 19:16:00,
2013-01-01 13:21:00,12.6,4.7,30.22,West,260,5.0,6.0,70,0.00,,,0.00,Wunderground v.1.15,2013-01-01 19:21:00,
2013-01-01 13:26:00,12.8,4.9,30.22,WSW,250,6.0,8.0,70,0.00,,,0.00,Wunderground v.1.15,2013-01-01 19:26:00,
2013-01-01 13:31:00,12.7,4.8,30.22,WSW,252,6.0,7.0,70,0.00,,,0.00,Wunderground v.1.15,2013-01-01 19:31:00,
2013-01-01 13:36:00,12.6,4.7,30.22,West,259,5.0,10.0,70,0.00,,,0.00,Wunderground v.1.15,2013-01-01 19:36:00,
2013-01-01 13:41:00,12.6,4.7,30.22,West,271,5.0,9.0,70,0.00,,,0.00,Wunderground v.1.15,2013-01-01 19:41:00,
2013-01-01 13:46:00,12.7,4.8,30.22,WNW,292,5.0,9.0,70,0.00,,,0.00,Wunderground v.1.15,2013-01-01 19:46:00,
2013-01-01 13:51:00,12.7,4.8,30.22,WNW,287,3.0,8.0,70,0.00,,,0.00,Wunderground v.1.15,2013-01-01 19:51:00,
2013-01-01 13:56:00,12.9,4.6,30.21,West,267,9.0,9.0,69,0.00,,,0.00,Wunderground v.1.15,2013-01-01 19:56:00,
2013-01-01 14:01:00,12.7,4.4,30.21,West,276,5.0,8.0,69,0.00,,,0.00,Wunderground v.1.15,2013-01-01 20:01:00,
2013-01-01 14:06:00,12.6,4.7,30.21,West,259,3.0,9.0,70,0.00,,,0.00,Wunderground v.1.15,2013-01-01 20:06:00,
2013-01-01 14:11:00,12.5,4.6,30.21,WSW,256,5.0,10.0,70,0.00,,,0.00,Wunderground v.1.15,2013-01-01 20:11:00,
2013-01-01 14:16:00,12.5,4.6,30.21,West,279,5.0,10.0,70,0.00,,,0.00,Wunderground v.1.15,2013-01-01 20:16:00,
2013-01-01 14:21:00,12.8,4.9,30.21,WNW,288,5.0,6.0,70,0.00,,,0.00,Wunderground v.1.15,2013-01-01 20:21:00,
2013-01-01 14:26:00,12.6,4.3,30.21,West,263,7.0,10.0,69,0.00,,,0.00,Wunderground v.1.15,2013-01-01 20:26:00,
2013-01-01 14:31:00,12.5,4.3,30.21,West,271,6.0,7.0,69,0.00,,,0.00,Wunderground v.1.15,2013-01-01 20:31:00,
2013-01-01 14:36:00,12.5,4.3,30.21,West,276,5.0,8.0,69,0.00,,,0.00,Wunderground v.1.15,2013-01-01 20:36:00,
2013-01-01 14:42:00,12.4,4.2,30.21,West,271,7.0,7.0,69,0.00,,,0.00,Wunderground v.1.15,2013-01-01 20:42:00,
2013-01-01 14:47:00,12.9,4.6,30.21,SW,236,4.0,9.0,69,0.00,,,0.00,Wunderground v.1.15,2013-01-01 20:47:00,
2013-01-01 14:51:00,12.9,4.3,30.21,WSW,256,8.0,8.0,68,0.00,,,0.00,Wunderground v.1.15,2013-01-01 20:51:00,
2013-01-01 14:56:00,12.8,3.9,30.21,WSW,252,5.0,9.0,67,0.00,,,0.00,Wunderground v.1.15,2013-01-01 20:56:00,
2013-01-01 15:02:00,12.9,4.0,30.21,WSW,245,5.0,7.0,67,0.00,,,0.00,Wunderground v.1.15,2013-01-01 21:02:00,
2013-01-01 15:07:00,12.8,3.6,30.21,West,260,7.0,8.0,66,0.00,,,0.00,Wunderground v.1.15,2013-01-01 21:07:00,
2013-01-01 15:12:00,12.7,3.5,30.21,West,262,7.0,10.0,66,0.00,,,0.00,Wunderground v.1.15,2013-01-01 21:12:00,
2013-01-01 15:17:00,12.6,3.4,30.21,West,274,6.0,10.0,66,0.00,,,0.00,Wunderground v.1.15,2013-01-01 21:17:00,
2013-01-01 15:22:00,12.5,3.6,30.21,West,259,7.0,9.0,67,0.00,,,0.00,Wunderground v.1.15,2013-01-01 21:22:00,
2013-01-01 15:27:00,12.4,3.5,30.21,WSW,253,6.0,9.0,67,0.00,,,0.00,Wunderground v.1.15,2013-01-01 21:27:00,
2013-01-01 15:32:00,12.4,3.5,30.21,WSW,249,7.0,9.0,67,0.00,,,0.00,Wunderground v.1.15,2013-01-01 21:32:00,
2013-01-01 15:37:00,12.3,3.4,30.21,West,271,5.0,9.0,67,0.00,,,0.00,Wunderground v.1.15,2013-01-01 21:37:00,
2013-01-01 15:42:00,12.4,3.5,30.21,WSW,257,4.0,6.0,67,0.00,,,0.00,Wunderground v.1.15,2013-01-01 21:42:00,
2013-01-01 15:47:00,12.1,3.2,30.20,WSW,257,4.0,8.0,67,0.00,,,0.00,Wunderground v.1.15,2013-01-01 21:47:00,
2013-01-01 15:52:00,12.0,3.5,30.20,West,269,6.0,8.0,68,0.00,,,0.00,Wunderground v.1.15,2013-01-01 21:52:00,
2013-01-01 15:57:00,11.8,2.9,30.20,West,259,5.0,9.0,67,0.00,,,0.00,Wunderground v.1.15,2013-01-01 21:57:00,
2013-01-01 16:02:00,11.6,2.8,30.21,West,267,5.0,8.0,67,0.00,,,0.00,Wunderground v.1.15,2013-01-01 22:02:00,
2013-01-01 16:07:00,11.3,2.8,30.20,West,262,6.0,10.0,68,0.00,,,0.00,Wunderground v.1.15,2013-01-01 22:07:00,
2013-01-01 16:12:00,10.9,2.4,30.21,West,262,5.0,6.0,68,0.00,,,0.00,Wunderground v.1.15,2013-01-01 22:12:00,
2013-01-01 16:17:00,10.5,2.3,30.21,WSW,248,7.0,7.0,69,0.00,,,0.00,Wunderground v.1.15,2013-01-01 22:17:00,
2013-01-01 16:22:00,10.1,1.9,30.21,West,270,4.0,6.0,69,0.00,,,0.00,Wunderground v.1.15,2013-01-01 22:22:00,
2013-01-01 16:27:00,9.9,2.1,30.21,WSW,255,4.0,9.0,70,0.00,,,0.00,Wunderground v.1.15,2013-01-01 22:27:00,
2013-01-01 16:32:00,9.6,1.8,30.21,WNW,285,5.0,6.0,70,0.00,,,0.00,Wunderground v.1.15,2013-01-01 22:32:00,
2013-01-01 16:37:00,9.2,1.7,30.20,WSW,256,3.0,6.0,71,0.00,,,0.00,Wunderground v.1.15,2013-01-01 22:37:00,
2013-01-01 16:42:00,9.0,1.8,30.21,West,267,4.0,5.0,72,0.00,,,0.00,Wunderground v.1.15,2013-01-01 22:42:00,
2013-01-01 16:47:00,8.7,1.5,30.21,West,260,3.0,5.0,72,0.00,,,0.00,Wunderground v.1.15,2013-01-01 22:47:00,
2013-01-01 16:52:00,8.4,1.5,30.20,West,264,4.0,4.0,73,0.00,,,0.00,Wunderground v.1.15,2013-01-01 22:52:00,
2013-01-01 16:57:00,8.1,1.2,30.21,West,260,4.0,5.0,73,0.00,,,0.00,Wunderground v.1.15,2013-01-01 22:57:00,
2013-01-01 17:02:00,7.9,1.0,30.20,West,259,3.0,5.0,73,0.00,,,0.00,Wunderground v.1.15,2013-01-01 23:02:00,
2013-01-01 17:07:00,7.7,0.8,30.20,WSW,256,2.0,5.0,73,0.00,,,0.00,Wunderground v.1.15,2013-01-01 23:07:00,
2013-01-01 17:12:00,7.4,0.8,30.20,WSW,255,2.0,4.0,74,0.00,,,0.00,Wunderground v.1.15,2013-01-01 23:12:00,
2013-01-01 17:17:00,7.2,0.7,30.20,WSW,258,2.0,4.0,74,0.00,,,0.00,Wunderground v.1.15,2013-01-01 23:17:00,
2013-01-01 17:22:00,7.1,0.8,30.20,West,263,2.0,3.0,75,0.00,,,0.00,Wunderground v.1.15,2013-01-01 23:22:00,
2013-01-01 17:27:00,7.0,0.7,30.20,West,260,2.0,3.0,75,0.00,,,0.00,Wunderground v.1.15,2013-01-01 23:27:00,
2013-01-01 17:32:00,6.7,0.5,30.20,WSW,256,3.0,4.0,75,0.00,,,0.00,Wunderground v.1.15,2013-01-01 23:32:00,
2013-01-01 17:37:00,6.2,0.3,30.20,WSW,258,2.0,4.0,76,0.00,,,0.00,Wunderground v.1.15,2013-01-01 23:37:00,
2013-01-01 17:42:00,6.0,0.3,30.20,WSW,256,2.0,3.0,77,0.00,,,0.00,Wunderground v.1.15,2013-01-01 23:42:00,
2013-01-01 17:47:00,5.9,0.2,30.20,WSW,258,3.0,3.0,77,0.00,,,0.00,Wunderground v.1.15,2013-01-01 23:47:00,
2013-01-01 17:52:00,6.1,0.7,30.20,West,259,3.0,3.0,78,0.00,,,0.00,Wunderground v.1.15,2013-01-01 23:52:00,
2013-01-01 17:57:00,6.5,1.1,30.20,West,267,3.0,4.0,78,0.00,,,0.00,Wunderground v.1.15,2013-01-01 23:57:00,
2013-01-01 18:02:00,6.7,1.3,30.20,West,260,4.0,4.0,78,0.00,,,0.00,Wunderground v.1.15,2013-01-02 00:02:00,
2013-01-01 18:07:00,6.6,1.2,30.20,WSW,254,4.0,4.0,78,0.00,,,0.00,Wunderground v.1.15,2013-01-02 00:07:00,
2013-01-01 18:12:00,6.7,1.6,30.20,West,262,3.0,5.0,79,0.00,,,0.00,Wunderground v.1.15,2013-01-02 00:12:00,
2013-01-01 18:17:00,7.3,2.2,30.20,WSW,258,3.0,6.0,79,0.00,,,0.00,Wunderground v.1.15,2013-01-02 00:17:00,
2013-01-01 18:22:00,7.3,1.9,30.20,West,260,4.0,6.0,78,0.00,,,0.00,Wunderground v.1.15,2013-01-02 00:22:00,
2013-01-01 18:27:00,7.2,1.8,30.20,West,263,4.0,6.0,78,0.00,,,0.00,Wunderground v.1.15,2013-01-02 00:27:00,
2013-01-01 18:32:00,6.8,1.1,30.21,WSW,256,3.0,5.0,77,0.00,,,0.00,Wunderground v.1.15,2013-01-02 00:32:00,
2013-01-01 18:37:00,6.9,1.5,30.21,WSW,257,3.0,5.0,78,0.00,,,0.00,Wunderground v.1.15,2013-01-02 00:37:00,
2013-01-01 18:42:00,7.0,1.9,30.21,West,269,4.0,5.0,79,0.00,,,0.00,Wunderground v.1.15,2013-01-02 00:42:00,
2013-01-01 18:47:00,7.0,1.6,30.21,West,260,4.0,5.0,78,0.00,,,0.00,Wunderground v.1.15,2013-01-02 00:47:00,
2013-01-01 18:52:00,7.1,1.7,30.21,West,263,4.0,6.0,78,0.00,,,0.00,Wunderground v.1.15,2013-01-02 00:52:00,
2013-01-01 18:57:00,7.3,2.2,30.21,WSW,253,4.0,7.0,79,0.00,,,0.00,Wunderground v.1.15,2013-01-02 00:57:00,
2013-01-01 19:02:00,7.5,2.1,30.21,West,263,5.0,5.0,78,0.00,,,0.00,Wunderground v.1.15,2013-01-02 01:02:00,
2013-01-01 19:07:00,7.5,2.1,30.21,West,271,6.0,6.0,78,0.00,,,0.00,Wunderground v.1.15,2013-01-02 01:07:00,
2013-01-01 19:12:00,7.6,1.9,30.21,West,259,5.0,6.0,77,0.00,,,0.00,Wunderground v.1.15,2013-01-02 01:12:00,
2013-01-01 19:17:00,7.7,2.0,30.21,West,259,5.0,6.0,77,0.00,,,0.00,Wunderground v.1.15,2013-01-02 01:17:00,
2013-01-01 19:22:00,7.5,1.8,30.21,WSW,258,4.0,6.0,77,0.00,,,0.00,Wunderground v.1.15,2013-01-02 01:22:00,
2013-01-01 19:27:00,7.4,1.7,30.21,WSW,249,5.0,6.0,77,0.00,,,0.00,Wunderground v.1.15,2013-01-02 01:27:00,
2013-01-01 19:32:00,7.3,1.9,30.21,West,259,4.0,5.0,78,0.00,,,0.00,Wunderground v.1.15,2013-01-02 01:32:00,
2013-01-01 19:37:00,7.4,1.7,30.21,WSW,257,4.0,7.0,77,0.00,,,0.00,Wunderground v.1.15,2013-01-02 01:37:00,
2013-01-01 19:42:00,7.5,2.1,30.21,WSW,257,6.0,7.0,78,0.00,,,0.00,Wunderground v.1.15,2013-01-02 01:42:00,
2013-01-01 19:47:00,7.5,1.8,30.20,West,263,4.0,7.0,77,0.00,,,0.00,Wunderground v.1.15,2013-01-02 01:47:00,
2013-01-01 19:52:00,7.6,2.2,30.20,WSW,256,8.0,8.0,78,0.00,,,0.00,Wunderground v.1.15,2013-01-02 01:52:00,
2013-01-01 19:57:00,7.7,2.0,30.20,West,264,4.0,8.0,77,0.00,,,0.00,Wunderground v.1.15,2013-01-02 01:57:00,
2013-01-01 20:02:00,7.7,2.0,30.20,WSW,252,6.0,8.0,77,0.00,,,0.00,Wunderground v.1.15,2013-01-02 02:02:00,
2013-01-01 20:07:00,7.9,2.2,30.20,West,268,4.0,8.0,77,0.00,,,0.00,Wunderground v.1.15,2013-01-02 02:07:00,
2013-01-01 20:13:00,8.0,2.3,30.20,WSW,257,5.0,7.0,77,0.00,,,0.00,Wunderground v.1.15,2013-01-02 02:13:00,
2013-01-01 20:18:00,8.0,2.3,30.19,WSW,253,4.0,10.0,77,0.00,,,0.00,Wunderground v.1.15,2013-01-02 02:18:00,
2013-01-01 20:23:00,8.3,2.3,30.20,West,268,4.0,10.0,76,0.00,,,0.00,Wunderground v.1.15,2013-01-02 02:23:00,
2013-01-01 20:28:00,8.7,2.4,30.20,WSW,257,7.0,10.0,75,0.00,,,0.00,Wunderground v.1.15,2013-01-02 02:28:00,
2013-01-01 20:33:00,8.8,2.2,30.19,West,267,4.0,10.0,74,0.00,,,0.00,Wunderground v.1.15,2013-01-02 02:33:00,
2013-01-01 20:38:00,8.7,2.1,30.19,West,267,4.0,10.0,74,0.00,,,0.00,Wunderground v.1.15,2013-01-02 02:38:00,
2013-01-01 20:43:00,8.8,2.2,30.20,West,263,4.0,6.0,74,0.00,,,0.00,Wunderground v.1.15,2013-01-02 02:43:00,
2013-01-01 20:48:00,8.8,2.2,30.19,West,268,6.0,7.0,74,0.00,,,0.00,Wunderground v.1.15,2013-01-02 02:48:00,
2013-01-01 20:53:00,8.8,2.2,30.19,West,264,5.0,7.0,74,0.00,,,0.00,Wunderground v.1.15,2013-01-02 02:53:00,
2013-01-01 20:58:00,8.5,1.9,30.19,West,270,5.0,7.0,74,0.00,,,0.00,Wunderground v.1.15,2013-01-02 02:58:00,
2013-01-01 21:03:00,8.5,1.9,30.19,West,269,3.0,5.0,74,0.00,,,0.00,Wunderground v.1.15,2013-01-02 03:03:00,
2013-01-01 21:08:00,8.4,1.8,30.19,WSW,253,4.0,6.0,74,0.00,,,0.00,Wunderground v.1.15,2013-01-02 03:08:00,
2013-01-01 21:13:00,8.4,1.8,30.19,West,264,4.0,7.0,74,0.00,,,0.00,Wunderground v.1.15,2013-01-02 03:13:00,
2013-01-01 21:18:00,8.4,1.8,30.19,West,260,2.0,7.0,74,0.00,,,0.00,Wunderground v.1.15,2013-01-02 03:18:00,
2013-01-01 21:23:00,8.2,1.6,30.19,SW,235,1.0,4.0,74,0.00,,,0.00,Wunderground v.1.15,2013-01-02 03:23:00,
2013-01-01 21:28:00,7.8,1.2,30.19,WSW,250,0.0,4.0,74,0.00,,,0.00,Wunderground v.1.15,2013-01-02 03:28:00,
2013-01-01 21:33:00,7.5,1.2,30.19,West,259,0.0,2.0,75,0.00,,,0.00,Wunderground v.1.15,2013-01-02 03:33:00,
2013-01-01 21:38:00,7.3,1.0,30.18,West,259,0.0,2.0,75,0.00,,,0.00,Wunderground v.1.15,2013-01-02 03:38:00,
2013-01-01 21:43:00,7.0,1.0,30.18,West,259,0.0,0.0,76,0.00,,,0.00,Wunderground v.1.15,2013-01-02 03:43:00,
2013-01-01 21:48:00,6.7,0.7,30.18,West,276,1.0,1.0,76,0.00,,,0.00,Wunderground v.1.15,2013-01-02 03:48:00,
2013-01-01 21:53:00,6.2,0.3,30.18,West,262,1.0,2.0,76,0.00,,,0.00,Wunderground v.1.15,2013-01-02 03:53:00,
2013-01-01 21:58:00,5.5,-0.1,30.18,West,274,2.0,3.0,77,0.00,,,0.00,Wunderground v.1.15,2013-01-02 03:58:00,
2013-01-01 22:03:00,5.4,0.0,30.18,West,262,2.0,3.0,78,0.00,,,0.00,Wunderground v.1.15,2013-01-02 04:03:00,
2013-01-01 22:08:00,5.2,-0.4,30.19,WSW,254,2.0,3.0,77,0.00,,,0.00,Wunderground v.1.15,2013-01-02 04:08:00,
2013-01-01 22:13:00,5.5,0.4,30.19,WSW,256,3.0,6.0,79,0.00,,,0.00,Wunderground v.1.15,2013-01-02 04:13:00,
2013-01-01 22:18:00,5.9,0.5,30.19,WSW,257,3.0,6.0,78,0.00,,,0.00,Wunderground v.1.15,2013-01-02 04:18:00,
2013-01-01 22:23:00,5.9,0.5,30.19,West,263,4.0,5.0,78,0.00,,,0.00,Wunderground v.1.15,2013-01-02 04:23:00,
2013-01-01 22:28:00,6.2,0.8,30.18,West,264,2.0,6.0,78,0.00,,,0.00,Wunderground v.1.15,2013-01-02 04:28:00,
2013-01-01 22:33:00,6.2,0.8,30.19,West,262,2.0,5.0,78,0.00,,,0.00,Wunderground v.1.15,2013-01-02 04:33:00,
2013-01-01 22:38:00,6.0,0.6,30.19,WNW,296,2.0,5.0,78,0.00,,,0.00,Wunderground v.1.15,2013-01-02 04:38:00,
2013-01-01 22:43:00,6.1,0.7,30.19,West,260,2.0,3.0,78,0.00,,,0.00,Wunderground v.1.15,2013-01-02 04:43:00,
2013-01-01 22:48:00,6.0,0.6,30.19,West,266,1.0,3.0,78,0.00,,,0.00,Wunderground v.1.15,2013-01-02 04:48:00,
2013-01-01 22:53:00,5.8,0.4,30.19,West,272,1.0,3.0,78,0.00,,,0.00,Wunderground v.1.15,2013-01-02 04:53:00,
2013-01-01 22:58:00,5.8,0.4,30.19,WSW,253,0.0,3.0,78,0.00,,,0.00,Wunderground v.1.15,2013-01-02 04:58:00,
2013-01-01 23:00:00,5.6,0.2,30.19,WSW,253,1.0,1.0,78,0.00,,,0.00,Wunderground v.1.15,2013-01-02 05:00:00,
2013-01-01 23:01:00,5.5,0.1,30.19,WSW,253,0.0,1.0,78,0.00,,,0.00,Wunderground v.1.15,2013-01-02 05:01:00,
2013-01-01 23:06:00,5.1,0.0,30.19,WSW,253,0.0,1.0,79,0.00,,,0.00,Wunderground v.1.15,2013-01-02 05:06:00,
2013-01-01 23:11:00,5.1,0.3,30.19,WSW,252,1.0,1.0,80,0.00,,,0.00,Wunderground v.1.15,2013-01-02 05:11:00,
2013-01-01 23:16:00,5.4,0.6,30.19,WSW,250,2.0,3.0,80,0.00,,,0.00,Wunderground v.1.15,2013-01-02 05:16:00,
2013-01-01 23:21:00,5.6,0.2,30.19,West,272,1.0,2.0,78,0.00,,,0.00,Wunderground v.1.15,2013-01-02 05:21:00,
2013-01-01 23:26:00,5.9,0.8,30.18,West,278,0.0,2.0,79,0.00,,,0.00,Wunderground v.1.15,2013-01-02 05:26:00,
2013-01-01 23:31:00,5.8,0.4,30.18,West,259,0.0,0.0,78,0.00,,,0.00,Wunderground v.1.15,2013-01-02 05:31:00,
2013-01-01 23:36:00,5.9,0.8,30.18,West,262,3.0,3.0,79,0.00,,,0.00,Wunderground v.1.15,2013-01-02 05:36:00,
2013-01-01 23:41:00,6.4,1.3,30.17,West,259,3.0,4.0,79,0.00,,,0.00,Wunderground v.1.15,2013-01-02 05:41:00,
2013-01-01 23:46:00,6.8,1.4,30.17,West,276,0.0,4.0,78,0.00,,,0.00,Wunderground v.1.15,2013-01-02 05:46:00,
2013-01-01 23:51:00,6.8,1.1,30.18,SW,229,1.0,3.0,77,0.00,,,0.00,Wunderground v.1.15,2013-01-02 05:51:00,
2013-01-01 23:56:00,6.9,1.2,30.18,WSW,240,0.0,3.0,77,0.00,,,0.00,Wunderground v.1.15,2013-01-02 05:56:00,